Time,TemperatureF,DewpointF,PressureIn,WindDirection,WindDirectionDegrees,WindSpeedMPH,WindSpeedGustMPH,Humidity,HourlyPrecipIn,Conditions,Clouds,dailyrainin,SolarRadiationWatts/m^2,SoftwareType,DateUTC
2013-04-27 00:05:00,45.2,42.7,23.82,SSW,192,1.0,10.0,91,0.00,,,0.00,436,Wunderground v.1.15,2013-04-27 05:05:00,
2013-04-27 00:11:00,45.2,42.7,23.82,SSW,192,1.0,2.0,91,0.00,,,0.00,434,Wunderground v.1.15,2013-04-27 05:11:00,
2013-04-27 00:17:00,44.9,42.4,27.95,SSW,192,1.0,2.0,91,0.00,,,0.00,432,Wunderground v.1.15,2013-04-27 05:17:00,
2013-04-27 00:23:00,44.7,42.2,25.22,SSW,192,1.0,1.0,91,0.00,,,0.00,431,Wunderground v.1.15,2013-04-27 05:23:00,
2013-04-27 00:29:00,44.2,41.7,25.23,SSW,192,0.0,1.0,91,0.00,,,0.00,422,Wunderground v.1.15,2013-04-27 05:29:00,
2013-04-27 00:35:00,43.9,41.7,27.98,SSW,192,1.0,1.0,92,0.00,,,0.00,418,Wunderground v.1.15,2013-04-27 05:35:00,
2013-04-27 00:41:00,43.4,40.9,26.61,SSW,192,1.0,1.0,91,0.00,,,0.00,415,Wunderground v.1.15,2013-04-27 05:41:00,
2013-04-27 00:47:00,43.1,40.9,25.25,SSW,192,1.0,2.0,92,0.00,,,0.00,408,Wunderground v.1.15,2013-04-27 05:47:00,
2013-04-27 00:53:00,42.8,40.6,25.26,SSW,192,2.0,2.0,92,0.00,,,0.00,404,Wunderground v.1.15,2013-04-27 05:53:00,
2013-04-27 00:59:00,42.5,40.3,25.26,SSW,192,0.0,0.0,92,0.00,,,0.00,401,Wunderground v.1.15,2013-04-27 05:59:00,
2013-04-27 01:05:00,42.4,40.5,28.02,SSW,192,0.0,6.0,93,0.00,,,0.00,397,Wunderground v.1.15,2013-04-27 06:05:00,
2013-04-27 01:11:00,42.3,40.4,25.29,SSW,192,0.0,2.0,93,0.00,,,0.00,392,Wunderground v.1.15,2013-04-27 06:11:00,
2013-04-27 01:17:00,42.4,40.5,26.66,SSW,192,1.0,2.0,93,0.00,,,0.00,394,Wunderground v.1.15,2013-04-27 06:17:00,
2013-04-27 01:23:00,42.3,40.4,26.66,SSW,192,1.0,2.0,93,0.00,,,0.00,397,Wunderground v.1.15,2013-04-27 06:23:00,
2013-04-27 01:29:00,42.3,40.4,25.32,SSW,192,1.0,1.0,93,0.00,,,0.00,399,Wunderground v.1.15,2013-04-27 06:29:00,
2013-04-27 01:35:00,42.2,40.3,23.96,SSW,192,0.0,1.0,93,0.00,,,0.00,394,Wunderground v.1.15,2013-04-27 06:35:00,
2013-04-27 01:41:00,42.0,40.1,23.96,SSW,192,0.0,0.0,93,0.00,,,0.00,390,Wunderground v.1.15,2013-04-27 06:41:00,
2013-04-27 01:47:00,41.9,40.3,32.16,SSW,192,0.0,2.0,94,0.00,,,0.00,381,Wunderground v.1.15,2013-04-27 06:47:00,
2013-04-27 01:53:00,41.8,40.2,32.16,SSW,192,1.0,1.0,94,0.00,,,0.00,387,Wunderground v.1.15,2013-04-27 06:53:00,
2013-04-27 01:59:00,41.9,40.3,26.71,SSW,192,1.0,1.0,94,0.00,,,0.00,396,Wunderground v.1.15,2013-04-27 06:59:00,
2013-04-27 02:05:00,42.5,41.2,26.71,SSW,192,0.0,3.0,95,0.00,,,0.00,406,Wunderground v.1.15,2013-04-27 07:05:00,
2013-04-27 02:11:00,43.0,41.7,26.71,SSW,192,0.0,3.0,95,0.00,,,0.00,417,Wunderground v.1.15,2013-04-27 07:11:00,
2013-04-27 02:17:00,44.1,43.0,30.83,SW,229,3.0,4.0,96,0.00,,,0.00,439,Wunderground v.1.15,2013-04-27 07:17:00,
2013-04-27 02:23:00,44.8,43.7,30.83,SW,234,4.0,6.0,96,0.00,,,0.00,450,Wunderground v.1.15,2013-04-27 07:23:00,
2013-04-27 02:29:00,45.2,43.9,25.39,WSW,241,5.0,5.0,95,0.00,,,0.00,446,Wunderground v.1.15,2013-04-27 07:29:00,
2013-04-27 02:35:00,45.4,44.3,30.84,SW,235,5.0,6.0,96,0.00,,,0.00,454,Wunderground v.1.15,2013-04-27 07:35:00,
2013-04-27 02:41:00,45.4,44.1,29.49,WSW,245,5.0,6.0,95,0.00,,,0.00,461,Wunderground v.1.15,2013-04-27 07:41:00,
2013-04-27 02:47:00,45.5,44.4,26.77,WSW,249,5.0,8.0,96,0.00,,,0.00,459,Wunderground v.1.15,2013-04-27 07:47:00,
2013-04-27 02:53:00,45.4,44.1,32.22,WSW,245,5.0,5.0,95,0.00,,,0.00,459,Wunderground v.1.15,2013-04-27 07:53:00,
2013-04-27 02:59:00,45.2,43.9,32.22,WSW,245,5.0,5.0,95,0.00,,,0.00,455,Wunderground v.1.15,2013-04-27 07:59:00,
2013-04-27 03:05:00,45.2,44.1,29.51,SW,234,5.0,7.0,96,0.00,,,0.00,454,Wunderground v.1.15,2013-04-27 08:05:00,
2013-04-27 03:11:00,45.1,44.0,25.43,SW,236,6.0,6.0,96,0.00,,,0.00,452,Wunderground v.1.15,2013-04-27 08:11:00,
2013-04-27 03:17:00,45.0,43.9,29.52,SW,229,5.0,6.0,96,0.00,,,0.00,450,Wunderground v.1.15,2013-04-27 08:17:00,
2013-04-27 03:23:00,45.0,43.9,28.16,SW,230,5.0,5.0,96,0.00,,,0.00,448,Wunderground v.1.15,2013-04-27 08:23:00,
2013-04-27 03:29:00,45.1,44.0,31.16,SW,227,5.0,5.0,96,0.00,,,0.00,452,Wunderground v.1.15,2013-04-27 08:29:00,
2013-04-27 03:35:00,45.0,43.9,31.16,SW,226,4.0,5.0,96,0.00,,,0.00,455,Wunderground v.1.15,2013-04-27 08:35:00,
2013-04-27 03:41:00,45.1,44.0,25.47,SW,226,3.0,3.0,96,0.00,,,0.00,459,Wunderground v.1.15,2013-04-27 08:41:00,
2013-04-27 03:47:00,45.1,44.0,25.47,SW,227,4.0,5.0,96,0.00,,,0.00,455,Wunderground v.1.15,2013-04-27 08:47:00,
2013-04-27 03:53:00,45.2,44.1,25.47,SW,227,4.0,4.0,96,0.00,,,0.00,457,Wunderground v.1.15,2013-04-27 08:53:00,
2013-04-27 03:59:00,45.2,44.1,26.84,SW,230,3.0,3.0,96,0.00,,,0.00,461,Wunderground v.1.15,2013-04-27 08:59:00,
2013-04-27 04:05:00,45.2,44.1,30.91,WSW,246,3.0,9.0,96,0.00,,,0.00,457,Wunderground v.1.15,2013-04-27 09:05:00,
2013-04-27 04:11:00,45.1,44.0,25.50,WSW,244,2.0,9.0,96,0.00,,,0.00,459,Wunderground v.1.15,2013-04-27 09:11:00,
2013-04-27 04:17:00,45.1,44.0,25.50,WSW,244,3.0,9.0,96,0.00,,,0.00,455,Wunderground v.1.15,2013-04-27 09:17:00,
2013-04-27 04:23:00,45.0,43.9,30.92,WSW,244,3.0,3.0,96,0.00,,,0.00,462,Wunderground v.1.15,2013-04-27 09:23:00,
2013-04-27 04:29:00,45.0,43.9,32.28,WSW,244,2.0,2.0,96,0.00,,,0.00,457,Wunderground v.1.15,2013-04-27 09:29:00,
2013-04-27 04:35:00,45.1,44.0,32.29,WSW,244,2.0,3.0,96,0.00,,,0.00,461,Wunderground v.1.15,2013-04-27 09:35:00,
2013-04-27 04:41:00,45.1,44.0,30.94,WSW,244,2.0,2.0,96,0.00,,,0.00,464,Wunderground v.1.15,2013-04-27 09:41:00,
2013-04-27 04:47:00,45.1,44.0,30.94,WSW,241,3.0,4.0,96,0.00,,,0.00,457,Wunderground v.1.15,2013-04-27 09:47:00,
2013-04-27 04:53:00,44.9,43.8,28.24,WSW,240,4.0,5.0,96,0.00,,,0.00,454,Wunderground v.1.15,2013-04-27 09:53:00,
2013-04-27 04:59:00,44.9,43.8,28.24,WSW,240,3.0,3.0,96,0.00,,,0.00,455,Wunderground v.1.15,2013-04-27 09:59:00,
2013-04-27 05:05:00,45.0,43.9,28.25,WSW,240,3.0,9.0,96,0.00,,,0.00,461,Wunderground v.1.15,2013-04-27 10:05:00,
2013-04-27 05:11:00,45.0,43.9,30.95,WSW,240,3.0,3.0,96,0.00,,,0.00,459,Wunderground v.1.15,2013-04-27 10:11:00,
2013-04-27 05:17:00,45.1,44.0,30.95,SW,234,3.0,4.0,96,0.00,,,0.00,464,Wunderground v.1.15,2013-04-27 10:17:00,
2013-04-27 05:23:00,45.1,44.0,32.31,SW,234,2.0,2.0,96,0.00,,,0.00,464,Wunderground v.1.15,2013-04-27 10:23:00,
2013-04-27 05:29:00,45.0,43.9,29.61,SW,233,2.0,2.0,96,0.00,,,0.00,455,Wunderground v.1.15,2013-04-27 10:29:00,
2013-04-27 05:35:00,44.8,43.7,29.61,SW,234,3.0,3.0,96,0.00,,,0.00,454,Wunderground v.1.15,2013-04-27 10:35:00,
2013-04-27 05:41:00,44.9,43.8,28.27,SW,233,3.0,3.0,96,0.00,,,0.00,455,Wunderground v.1.15,2013-04-27 10:41:00,
2013-04-27 05:47:00,44.9,43.8,31.23,SW,233,2.0,3.0,96,0.00,,,0.00,450,Wunderground v.1.15,2013-04-27 10:47:00,
2013-04-27 05:53:00,44.9,44.1,31.23,SW,234,2.0,4.0,97,0.00,,,0.00,443,Wunderground v.1.15,2013-04-27 10:53:00,
2013-04-27 05:59:00,44.9,44.1,31.23,SW,233,2.0,3.0,97,0.00,,,0.00,427,Wunderground v.1.15,2013-04-27 10:59:00,
2013-04-27 06:05:00,44.9,44.1,31.23,SW,234,2.0,6.0,97,0.00,,,0.00,408,Wunderground v.1.15,2013-04-27 11:05:00,
2013-04-27 06:11:00,44.9,44.1,32.34,SW,234,2.0,6.0,97,0.00,,,0.00,388,Wunderground v.1.15,2013-04-27 11:11:00,
2013-04-27 06:17:00,44.8,44.0,31.24,SSW,196,3.0,6.0,97,0.00,,,0.00,371,Wunderground v.1.15,2013-04-27 11:17:00,
2013-04-27 06:23:00,44.8,44.0,31.25,SSW,196,3.0,5.0,97,0.00,,,0.00,360,Wunderground v.1.15,2013-04-27 11:23:00,
2013-04-27 06:29:00,44.7,43.9,31.25,SSW,197,3.0,4.0,97,0.00,,,0.00,352,Wunderground v.1.15,2013-04-27 11:29:00,
2013-04-27 06:35:00,44.8,44.0,31.25,SSE,168,4.0,5.0,97,0.00,,,0.00,338,Wunderground v.1.15,2013-04-27 11:35:00,
2013-04-27 06:41:00,44.8,44.0,31.26,South,169,4.0,4.0,97,0.00,,,0.00,329,Wunderground v.1.15,2013-04-27 11:41:00,
2013-04-27 06:47:00,44.8,44.0,31.26,SSW,194,4.0,7.0,97,0.00,,,0.00,323,Wunderground v.1.15,2013-04-27 11:47:00,
2013-04-27 06:53:00,45.0,44.2,31.26,South,180,4.0,4.0,97,0.00,,,0.00,320,Wunderground v.1.15,2013-04-27 11:53:00,
2013-04-27 06:59:00,45.0,44.2,31.27,South,180,4.0,4.0,97,0.00,,,0.00,315,Wunderground v.1.15,2013-04-27 11:59:00,
2013-04-27 07:05:00,45.0,44.2,31.27,South,188,4.0,6.0,97,0.00,,,0.00,308,Wunderground v.1.15,2013-04-27 12:05:00,
2013-04-27 07:11:00,45.0,44.2,31.27,South,187,4.0,4.0,97,0.00,,,0.00,302,Wunderground v.1.15,2013-04-27 12:11:00,
2013-04-27 07:17:00,45.2,44.4,31.27,South,186,4.0,5.0,97,0.00,,,0.00,299,Wunderground v.1.15,2013-04-27 12:17:00,
2013-04-27 07:23:00,45.2,44.4,31.27,South,186,4.0,5.0,97,0.00,,,0.00,294,Wunderground v.1.15,2013-04-27 12:23:00,
2013-04-27 07:29:00,45.3,44.5,31.27,South,184,4.0,5.0,97,0.00,,,0.00,292,Wunderground v.1.15,2013-04-27 12:29:00,
2013-04-27 07:35:00,45.5,44.7,31.28,South,188,4.0,5.0,97,0.00,,,0.00,287,Wunderground v.1.15,2013-04-27 12:35:00,
2013-04-27 07:41:00,45.6,44.8,31.28,South,189,4.0,6.0,97,0.00,,,0.00,285,Wunderground v.1.15,2013-04-27 12:41:00,
2013-04-27 07:47:00,45.7,44.9,27.49,SSW,205,5.0,6.0,97,0.00,,,0.00,274,Wunderground v.1.15,2013-04-27 12:47:00,
2013-04-27 07:53:00,45.9,45.1,27.49,SSW,205,6.0,8.0,97,0.00,,,0.00,283,Wunderground v.1.15,2013-04-27 12:53:00,
2013-04-27 07:59:00,46.1,45.3,27.49,SSW,207,5.0,5.0,97,0.00,,,0.00,285,Wunderground v.1.15,2013-04-27 12:59:00,
2013-04-27 08:05:00,46.3,45.5,31.27,SSW,211,5.0,8.0,97,0.00,,,0.00,281,Wunderground v.1.15,2013-04-27 13:05:00,
2013-04-27 08:11:00,46.3,45.5,31.27,SSW,206,5.0,8.0,97,0.00,,,0.00,276,Wunderground v.1.15,2013-04-27 13:11:00,
2013-04-27 08:17:00,46.5,45.7,32.38,SSW,202,6.0,8.0,97,0.00,,,0.00,283,Wunderground v.1.15,2013-04-27 13:17:00,
2013-04-27 08:23:00,46.4,45.6,31.03,SSW,207,6.0,7.0,97,0.00,,,0.00,272,Wunderground v.1.15,2013-04-27 13:23:00,
2013-04-27 08:29:00,46.5,45.7,31.27,SSW,203,7.0,10.0,97,0.00,,,0.00,272,Wunderground v.1.15,2013-04-27 13:29:00,
2013-04-27 08:35:00,46.7,45.9,31.27,SSW,207,7.0,10.0,97,0.00,,,0.00,276,Wunderground v.1.15,2013-04-27 13:35:00,
2013-04-27 08:41:00,46.8,46.0,31.27,SSW,200,7.0,9.0,97,0.00,,,0.00,274,Wunderground v.1.15,2013-04-27 13:41:00,
2013-04-27 08:49:00,46.8,46.0,31.26,South,190,7.0,7.0,97,0.00,,,0.00,276,Wunderground v.1.15,2013-04-27 13:49:00,
2013-04-27 08:55:00,47.1,46.3,28.02,South,189,6.0,8.0,97,0.00,,,0.00,283,Wunderground v.1.15,2013-04-27 13:55:00,
2013-04-27 09:01:00,47.1,46.3,28.02,SSW,192,6.0,9.0,97,0.00,,,0.00,285,Wunderground v.1.15,2013-04-27 14:01:00,
2013-04-27 09:07:00,47.2,46.4,32.37,South,182,7.0,9.0,97,0.00,,,0.00,283,Wunderground v.1.15,2013-04-27 14:07:00,
2013-04-27 09:13:00,47.4,46.6,31.26,SW,215,7.0,8.0,97,0.00,,,0.00,283,Wunderground v.1.15,2013-04-27 14:13:00,
2013-04-27 09:19:00,47.5,46.7,31.26,SSW,211,7.0,9.0,97,0.00,,,0.00,283,Wunderground v.1.15,2013-04-27 14:19:00,
2013-04-27 09:25:00,47.5,46.7,31.26,SSW,193,7.0,10.0,97,0.00,,,0.00,288,Wunderground v.1.15,2013-04-27 14:25:00,
2013-04-27 09:31:00,47.5,46.7,31.26,South,186,7.0,7.0,97,0.00,,,0.00,287,Wunderground v.1.15,2013-04-27 14:31:00,
2013-04-27 09:37:00,47.9,47.1,31.25,SW,223,6.0,7.0,97,0.00,,,0.00,294,Wunderground v.1.15,2013-04-27 14:37:00,
2013-04-27 09:43:00,48.0,47.2,31.25,SW,225,7.0,10.0,97,0.00,,,0.00,288,Wunderground v.1.15,2013-04-27 14:43:00,
2013-04-27 09:49:00,48.0,47.2,31.25,SSW,209,8.0,8.0,97,0.00,,,0.00,287,Wunderground v.1.15,2013-04-27 14:49:00,
2013-04-27 09:55:00,48.1,47.3,31.25,SSW,213,7.0,8.0,97,0.00,,,0.00,290,Wunderground v.1.15,2013-04-27 14:55:00,
2013-04-27 10:01:00,48.2,47.4,29.65,SW,222,6.0,12.0,97,0.00,,,0.00,288,Wunderground v.1.15,2013-04-27 15:01:00,
2013-04-27 10:07:00,48.5,47.7,31.24,SW,215,6.0,12.0,97,0.00,,,0.00,294,Wunderground v.1.15,2013-04-27 15:07:00,
2013-04-27 10:13:00,48.6,47.8,31.24,SW,232,6.0,7.0,97,0.00,,,0.00,297,Wunderground v.1.15,2013-04-27 15:13:00,
2013-04-27 10:19:00,48.5,47.7,31.24,SSW,205,6.0,6.0,97,0.00,,,0.00,292,Wunderground v.1.15,2013-04-27 15:19:00,
2013-04-27 10:25:00,48.5,47.7,31.24,SSW,199,6.0,6.0,97,0.00,,,0.00,295,Wunderground v.1.15,2013-04-27 15:25:00,
2013-04-27 10:31:00,48.7,47.9,30.99,SSW,213,6.0,8.0,97,0.00,,,0.00,301,Wunderground v.1.15,2013-04-27 15:31:00,
2013-04-27 10:37:00,48.7,47.9,30.99,SSW,192,7.0,9.0,97,0.00,,,0.00,299,Wunderground v.1.15,2013-04-27 15:37:00,
2013-04-27 10:43:00,49.0,48.2,30.99,SSW,210,6.0,8.0,97,0.00,,,0.00,306,Wunderground v.1.15,2013-04-27 15:43:00,
2013-04-27 10:49:00,49.2,48.4,31.23,SSW,205,5.0,5.0,97,0.00,,,0.00,308,Wunderground v.1.15,2013-04-27 15:49:00,
2013-04-27 10:55:00,49.7,48.9,31.23,SSW,213,6.0,10.0,97,0.00,,,0.00,315,Wunderground v.1.15,2013-04-27 15:55:00,
2013-04-27 11:01:00,49.7,48.9,30.98,SSW,209,7.0,8.0,97,0.00,,,0.00,315,Wunderground v.1.15,2013-04-27 16:01:00,
2013-04-27 11:07:00,50.1,49.3,29.33,SSW,200,6.0,11.0,97,0.00,,,0.00,316,Wunderground v.1.15,2013-04-27 16:07:00,
2013-04-27 11:13:00,50.4,49.6,31.22,SSW,209,5.0,7.0,97,0.00,,,0.00,330,Wunderground v.1.15,2013-04-27 16:13:00,
2013-04-27 11:19:00,50.9,50.1,31.23,WSW,238,5.0,6.0,97,0.00,,,0.00,338,Wunderground v.1.15,2013-04-27 16:19:00,
2013-04-27 11:25:00,51.4,50.6,31.22,SW,222,5.0,7.0,97,0.00,,,0.00,338,Wunderground v.1.15,2013-04-27 16:25:00,
2013-04-27 11:31:00,52.0,51.2,25.55,SW,224,4.0,5.0,97,0.00,,,0.00,359,Wunderground v.1.15,2013-04-27 16:31:00,
2013-04-27 11:37:00,52.5,51.4,32.31,SSW,205,4.0,5.0,96,0.00,,,0.00,367,Wunderground v.1.15,2013-04-27 16:37:00,
2013-04-27 11:43:00,53.3,52.2,30.95,South,180,4.0,5.0,96,0.00,,,0.00,397,Wunderground v.1.15,2013-04-27 16:43:00,
2013-04-27 11:49:00,54.3,52.6,31.20,South,175,3.0,4.0,94,0.00,,,0.00,446,Wunderground v.1.15,2013-04-27 16:49:00,
2013-04-27 11:55:00,55.2,52.3,31.19,SSW,200,5.0,7.0,90,0.00,,,0.00,443,Wunderground v.1.15,2013-04-27 16:55:00,
2013-04-27 12:01:00,55.9,52.4,31.19,South,171,5.0,11.0,88,0.00,,,0.00,454,Wunderground v.1.15,2013-04-27 17:01:00,
2013-04-27 12:07:00,57.2,52.4,29.57,SSE,164,5.0,11.0,84,0.00,,,0.00,487,Wunderground v.1.15,2013-04-27 17:07:00,
2013-04-27 12:13:00,58.2,52.4,29.57,SSE,150,4.0,6.0,81,0.00,,,0.00,527,Wunderground v.1.15,2013-04-27 17:13:00,
2013-04-27 12:19:00,59.1,51.9,29.57,SSE,158,5.0,5.0,77,0.00,,,0.00,548,Wunderground v.1.15,2013-04-27 17:19:00,
2013-04-27 12:25:00,59.9,51.2,28.19,SW,230,5.0,10.0,73,0.00,,,0.00,555,Wunderground v.1.15,2013-04-27 17:25:00,
2013-04-27 12:31:00,60.3,51.2,32.25,SSW,208,5.0,5.0,72,0.00,,,0.00,541,Wunderground v.1.15,2013-04-27 17:31:00,
2013-04-27 12:37:00,61.0,51.5,32.25,SSW,211,4.0,7.0,71,0.00,,,0.00,545,Wunderground v.1.15,2013-04-27 17:37:00,
2013-04-27 12:43:00,61.4,51.5,32.25,South,174,3.0,6.0,70,0.00,,,0.00,555,Wunderground v.1.15,2013-04-27 17:43:00,
2013-04-27 12:49:00,61.9,51.2,32.25,SSW,192,4.0,4.0,68,0.00,,,0.00,550,Wunderground v.1.15,2013-04-27 17:49:00,
2013-04-27 12:55:00,62.5,51.4,28.13,WSW,254,5.0,5.0,67,0.00,,,0.00,603,Wunderground v.1.15,2013-04-27 17:55:00,
2013-04-27 13:01:00,63.1,51.6,24.03,SSW,209,4.0,12.0,66,0.00,,,0.00,599,Wunderground v.1.15,2013-04-27 18:01:00,
2013-04-27 13:07:00,63.4,50.6,29.47,SW,233,4.0,12.0,63,0.00,,,0.00,589,Wunderground v.1.15,2013-04-27 18:07:00,
2013-04-27 13:13:00,63.5,51.1,31.09,SW,225,4.0,9.0,64,0.00,,,0.00,580,Wunderground v.1.15,2013-04-27 18:13:00,
2013-04-27 13:19:00,64.2,51.3,23.99,SW,218,3.0,6.0,63,0.00,,,0.00,589,Wunderground v.1.15,2013-04-27 18:19:00,
2013-04-27 13:25:00,64.8,51.0,23.97,SW,219,5.0,6.0,61,0.00,,,0.00,612,Wunderground v.1.15,2013-04-27 18:25:00,
2013-04-27 13:31:00,65.5,50.8,25.33,SSE,160,6.0,7.0,59,0.00,,,0.00,629,Wunderground v.1.15,2013-04-27 18:31:00,
2013-04-27 13:37:00,65.6,50.9,23.94,SSE,163,5.0,7.0,59,0.00,,,0.00,682,Wunderground v.1.15,2013-04-27 18:37:00,
2013-04-27 13:43:00,66.1,50.4,23.93,South,175,4.0,9.0,57,0.00,,,0.00,737,Wunderground v.1.15,2013-04-27 18:43:00,
2013-04-27 13:49:00,66.8,50.1,23.91,South,171,6.0,6.0,55,0.00,,,0.00,705,Wunderground v.1.15,2013-04-27 18:49:00,
2013-04-27 13:55:00,67.0,50.3,23.90,SSW,197,5.0,6.0,55,0.00,,,0.00,724,Wunderground v.1.15,2013-04-27 18:55:00,
2013-04-27 14:01:00,67.4,49.7,23.88,South,173,6.0,6.0,53,0.00,,,0.00,705,Wunderground v.1.15,2013-04-27 19:01:00,
2013-04-27 14:07:00,67.3,49.6,23.86,SSE,161,5.0,11.0,53,0.00,,,0.00,701,Wunderground v.1.15,2013-04-27 19:07:00,
2013-04-27 14:13:00,67.4,48.6,23.86,SSW,198,6.0,11.0,51,0.00,,,0.00,682,Wunderground v.1.15,2013-04-27 19:13:00,
2013-04-27 14:19:00,67.5,47.7,23.86,SSW,213,6.0,6.0,49,0.00,,,0.00,677,Wunderground v.1.15,2013-04-27 19:19:00,
2013-04-27 14:25:00,67.7,48.4,26.56,SSW,198,3.0,12.0,50,0.00,,,0.00,729,Wunderground v.1.15,2013-04-27 19:25:00,
2013-04-27 14:31:00,67.8,49.0,23.81,SSW,209,5.0,13.0,51,0.00,,,0.00,689,Wunderground v.1.15,2013-04-27 19:31:00,
2013-04-27 14:37:00,68.4,48.5,23.80,WSW,251,6.0,13.0,49,0.00,,,0.00,663,Wunderground v.1.15,2013-04-27 19:37:00,
2013-04-27 14:43:00,68.7,48.2,23.78,SSW,205,3.0,6.0,48,0.00,,,0.00,717,Wunderground v.1.15,2013-04-27 19:43:00,
2013-04-27 14:49:00,68.9,47.8,23.77,ESE,119,5.0,5.0,47,0.00,,,0.00,731,Wunderground v.1.15,2013-04-27 19:49:00,
2013-04-27 14:55:00,69.1,48.6,23.75,ESE,115,3.0,6.0,48,0.00,,,0.00,817,Wunderground v.1.15,2013-04-27 19:55:00,
2013-04-27 15:01:00,69.4,46.5,23.73,SSE,153,4.0,14.0,44,0.00,,,0.00,868,Wunderground v.1.15,2013-04-27 20:01:00,
2013-04-27 15:07:00,70.0,47.7,23.71,SE,137,6.0,14.0,45,0.00,,,0.00,835,Wunderground v.1.15,2013-04-27 20:07:00,
2013-04-27 15:13:00,70.3,46.7,23.70,SSW,203,5.0,6.0,43,0.00,,,0.00,833,Wunderground v.1.15,2013-04-27 20:13:00,
2013-04-27 15:19:00,70.1,45.3,23.68,West,271,5.0,8.0,41,0.00,,,0.00,773,Wunderground v.1.15,2013-04-27 20:19:00,
2013-04-27 15:25:00,69.6,44.8,23.67,WSW,248,6.0,8.0,41,0.00,,,0.00,717,Wunderground v.1.15,2013-04-27 20:25:00,
2013-04-27 15:31:00,68.9,46.1,23.66,SSW,195,5.0,5.0,44,0.00,,,0.00,650,Wunderground v.1.15,2013-04-27 20:31:00,
2013-04-27 15:37:00,69.4,46.5,23.64,WSW,242,4.0,5.0,44,0.00,,,0.00,661,Wunderground v.1.15,2013-04-27 20:37:00,
2013-04-27 15:43:00,70.1,45.3,23.63,South,186,3.0,7.0,41,0.00,,,0.00,756,Wunderground v.1.15,2013-04-27 20:43:00,
2013-04-27 15:49:00,70.9,44.7,23.61,SW,230,5.0,6.0,39,0.00,,,0.00,765,Wunderground v.1.15,2013-04-27 20:49:00,
2013-04-27 15:55:00,70.5,45.7,23.60,SSE,149,5.0,8.0,41,0.00,,,0.00,712,Wunderground v.1.15,2013-04-27 20:55:00,
2013-04-27 16:01:00,70.7,46.5,23.58,NW,317,4.0,19.0,42,0.00,,,0.00,710,Wunderground v.1.15,2013-04-27 21:01:00,
2013-04-27 16:07:00,70.7,45.2,23.57,NNW,337,2.0,19.0,40,0.00,,,0.00,731,Wunderground v.1.15,2013-04-27 21:07:00,
2013-04-27 16:13:00,70.9,44.0,23.56,SE,146,1.0,5.0,38,0.00,,,0.00,856,Wunderground v.1.15,2013-04-27 21:13:00,
2013-04-27 16:19:00,71.4,43.0,23.55,SW,220,3.0,7.0,36,0.00,,,0.00,886,Wunderground v.1.15,2013-04-27 21:19:00,
2013-04-27 16:25:00,71.5,44.5,23.53,WSW,237,4.0,7.0,38,0.00,,,0.00,817,Wunderground v.1.15,2013-04-27 21:25:00,
2013-04-27 16:31:00,71.5,43.1,23.52,ENE,78,5.0,5.0,36,0.00,,,0.00,768,Wunderground v.1.15,2013-04-27 21:31:00,
2013-04-27 16:37:00,70.8,43.2,23.51,WSW,242,4.0,6.0,37,0.00,,,0.00,749,Wunderground v.1.15,2013-04-27 21:37:00,
2013-04-27 16:43:00,70.4,43.6,23.50,WSW,242,1.0,3.0,38,0.00,,,0.00,719,Wunderground v.1.15,2013-04-27 21:43:00,
2013-04-27 16:49:00,70.8,43.2,23.49,SSW,200,1.0,7.0,37,0.00,,,0.00,745,Wunderground v.1.15,2013-04-27 21:49:00,
2013-04-27 16:55:00,71.2,43.6,23.48,NNW,344,4.0,10.0,37,0.00,,,0.00,745,Wunderground v.1.15,2013-04-27 21:55:00,
2013-04-27 17:01:00,71.3,43.7,23.47,SE,135,3.0,12.0,37,0.00,,,0.00,788,Wunderground v.1.15,2013-04-27 22:01:00,
2013-04-27 17:07:00,71.9,42.8,23.45,ESE,113,4.0,12.0,35,0.00,,,0.00,860,Wunderground v.1.15,2013-04-27 22:07:00,
2013-04-27 17:13:00,71.9,42.8,23.44,ESE,113,4.0,4.0,35,0.00,,,0.00,907,Wunderground v.1.15,2013-04-27 22:13:00,
2013-04-27 17:19:00,72.2,41.5,23.43,WSW,254,3.0,3.0,33,0.00,,,0.00,904,Wunderground v.1.15,2013-04-27 22:19:00,
2013-04-27 17:25:00,72.0,42.1,23.42,NW,304,3.0,6.0,34,0.00,,,0.00,837,Wunderground v.1.15,2013-04-27 22:25:00,
2013-04-27 17:31:00,71.3,42.2,23.42,SSW,200,4.0,9.0,35,0.00,,,0.00,784,Wunderground v.1.15,2013-04-27 22:31:00,
2013-04-27 17:37:00,71.6,41.7,23.42,SSW,212,4.0,9.0,34,0.00,,,0.00,744,Wunderground v.1.15,2013-04-27 22:37:00,
2013-04-27 17:43:00,72.0,42.1,23.42,SSW,203,4.0,6.0,34,0.00,,,0.00,733,Wunderground v.1.15,2013-04-27 22:43:00,
2013-04-27 17:49:00,71.8,42.7,23.42,SSE,166,5.0,5.0,35,0.00,,,0.00,733,Wunderground v.1.15,2013-04-27 22:49:00,
2013-04-27 17:55:00,71.9,42.0,23.42,SSW,206,6.0,9.0,34,0.00,,,0.00,742,Wunderground v.1.15,2013-04-27 22:55:00,
2013-04-27 18:01:00,71.9,43.5,23.42,WNW,287,4.0,13.0,36,0.00,,,0.00,745,Wunderground v.1.15,2013-04-27 23:01:00,
2013-04-27 18:07:00,71.5,43.8,23.42,WNW,296,2.0,13.0,37,0.00,,,0.00,751,Wunderground v.1.15,2013-04-27 23:07:00,
2013-04-27 18:13:00,71.4,42.3,23.42,SE,134,2.0,4.0,35,0.00,,,0.00,777,Wunderground v.1.15,2013-04-27 23:13:00,
2013-04-27 18:19:00,71.5,42.4,23.41,ENE,64,3.0,4.0,35,0.00,,,0.00,865,Wunderground v.1.15,2013-04-27 23:19:00,
2013-04-27 18:25:00,71.6,42.5,23.41,ESE,115,2.0,4.0,35,0.00,,,0.00,925,Wunderground v.1.15,2013-04-27 23:25:00,
2013-04-27 18:31:00,71.6,43.2,23.41,SE,138,5.0,12.0,36,0.00,,,0.00,914,Wunderground v.1.15,2013-04-27 23:31:00,
2013-04-27 18:37:00,71.3,44.4,23.41,SE,141,9.0,12.0,38,0.00,,,0.00,831,Wunderground v.1.15,2013-04-27 23:37:00,
2013-04-27 18:43:00,71.2,44.3,23.41,ESE,121,10.0,12.0,38,0.00,,,0.00,789,Wunderground v.1.15,2013-04-27 23:43:00,
2013-04-27 18:49:00,71.0,44.1,23.41,ESE,109,9.0,9.0,38,0.00,,,0.00,770,Wunderground v.1.15,2013-04-27 23:49:00,
2013-04-27 18:55:00,70.7,44.5,23.41,ESE,113,8.0,11.0,39,0.00,,,0.00,777,Wunderground v.1.15,2013-04-27 23:55:00,
2013-04-27 19:01:00,70.3,45.5,23.41,ESE,109,8.0,11.0,41,0.00,,,0.00,758,Wunderground v.1.15,2013-04-28 00:01:00,
2013-04-27 19:07:00,70.0,45.2,23.41,SE,134,10.0,13.0,41,0.00,,,0.00,735,Wunderground v.1.15,2013-04-28 00:07:00,
2013-04-27 19:13:00,69.7,44.9,23.41,SE,125,11.0,13.0,41,0.00,,,0.00,726,Wunderground v.1.15,2013-04-28 00:13:00,
2013-04-27 19:19:00,69.5,44.8,23.41,SE,142,11.0,14.0,41,0.00,,,0.00,698,Wunderground v.1.15,2013-04-28 00:19:00,
2013-04-27 19:25:00,68.9,46.1,23.41,SE,128,11.0,14.0,44,0.00,,,0.00,691,Wunderground v.1.15,2013-04-28 00:25:00,
2013-04-27 19:31:00,68.3,46.7,23.41,SE,136,11.0,11.0,46,0.00,,,0.00,666,Wunderground v.1.15,2013-04-28 00:31:00,
2013-04-27 19:37:00,67.5,47.1,23.41,SE,142,12.0,12.0,48,0.00,,,0.00,656,Wunderground v.1.15,2013-04-28 00:37:00,
2013-04-27 19:43:00,67.0,47.2,23.41,SSE,149,11.0,12.0,49,0.00,,,0.00,656,Wunderground v.1.15,2013-04-28 00:43:00,
2013-04-27 19:49:00,66.3,48.1,23.41,SE,142,11.0,14.0,52,0.00,,,0.00,649,Wunderground v.1.15,2013-04-28 00:49:00,
2013-04-27 19:55:00,65.5,48.4,23.42,SSE,148,11.0,14.0,54,0.00,,,0.00,628,Wunderground v.1.15,2013-04-28 00:55:00,
2013-04-27 20:01:00,64.7,48.2,23.42,SE,142,9.0,11.0,55,0.00,,,0.00,621,Wunderground v.1.15,2013-04-28 01:01:00,
2013-04-27 20:09:00,63.6,48.5,23.42,SSE,150,9.0,10.0,58,0.00,,,0.00,606,Wunderground v.1.15,2013-04-28 01:09:00,
2013-04-27 20:15:00,62.8,48.3,23.43,SSE,152,9.0,11.0,59,0.00,,,0.00,598,Wunderground v.1.15,2013-04-28 01:15:00,
2013-04-27 20:21:00,62.3,48.7,23.43,SSE,148,9.0,12.0,61,0.00,,,0.00,592,Wunderground v.1.15,2013-04-28 01:21:00,
2013-04-27 20:27:00,61.7,48.5,23.44,SE,146,9.0,12.0,62,0.00,,,0.00,594,Wunderground v.1.15,2013-04-28 01:27:00,
2013-04-27 20:33:00,61.1,48.4,23.44,SSE,151,8.0,9.0,63,0.00,,,0.00,596,Wunderground v.1.15,2013-04-28 01:33:00,
2013-04-27 20:39:00,60.6,48.4,23.44,SSE,147,8.0,9.0,64,0.00,,,0.00,599,Wunderground v.1.15,2013-04-28 01:39:00,
2013-04-27 20:45:00,60.2,48.4,23.45,SSE,153,9.0,11.0,65,0.00,,,0.00,613,Wunderground v.1.15,2013-04-28 01:45:00,
2013-04-27 20:51:00,60.0,48.6,23.45,SSE,163,9.0,9.0,66,0.00,,,0.00,635,Wunderground v.1.15,2013-04-28 01:51:00,
2013-04-27 20:57:00,59.6,48.6,23.46,SSE,153,9.0,11.0,67,0.00,,,0.00,640,Wunderground v.1.15,2013-04-28 01:57:00,
2013-04-27 21:03:00,59.2,48.2,23.47,SSE,153,9.0,16.0,67,0.00,,,0.00,666,Wunderground v.1.15,2013-04-28 02:03:00,
2013-04-27 21:09:00,58.6,48.1,23.48,SSE,148,8.0,8.0,68,0.00,,,0.00,668,Wunderground v.1.15,2013-04-28 02:09:00,
2013-04-27 21:15:00,58.3,48.2,23.49,SSE,151,8.0,8.0,69,0.00,,,0.00,664,Wunderground v.1.15,2013-04-28 02:15:00,
2013-04-27 21:21:00,58.1,48.4,23.49,SSE,164,7.0,8.0,70,0.00,,,0.00,668,Wunderground v.1.15,2013-04-28 02:21:00,
2013-04-27 21:27:00,57.8,48.1,23.50,SSE,153,8.0,9.0,70,0.00,,,0.00,664,Wunderground v.1.15,2013-04-28 02:27:00,
2013-04-27 21:33:00,57.6,48.3,23.51,SSE,164,7.0,8.0,71,0.00,,,0.00,659,Wunderground v.1.15,2013-04-28 02:33:00,
2013-04-27 21:39:00,57.3,48.0,23.52,SSE,149,7.0,7.0,71,0.00,,,0.00,659,Wunderground v.1.15,2013-04-28 02:39:00,
2013-04-27 21:45:00,56.9,48.0,23.53,South,186,7.0,9.0,72,0.00,,,0.00,657,Wunderground v.1.15,2013-04-28 02:45:00,
2013-04-27 21:51:00,56.5,47.9,23.54,SSE,157,7.0,7.0,73,0.00,,,0.00,643,Wunderground v.1.15,2013-04-28 02:51:00,
2013-04-27 21:57:00,56.2,48.0,23.55,SSE,153,6.0,7.0,74,0.00,,,0.00,638,Wunderground v.1.15,2013-04-28 02:57:00,
2013-04-27 22:03:00,55.9,47.7,23.56,SSE,160,6.0,15.0,74,0.00,,,0.00,636,Wunderground v.1.15,2013-04-28 03:03:00,
2013-04-27 22:09:00,55.5,47.7,23.56,SSE,147,6.0,6.0,75,0.00,,,0.00,631,Wunderground v.1.15,2013-04-28 03:09:00,
2013-04-27 22:15:00,55.2,47.8,23.57,SSE,159,6.0,9.0,76,0.00,,,0.00,622,Wunderground v.1.15,2013-04-28 03:15:00,
2013-04-27 22:21:00,55.1,47.7,23.58,South,171,6.0,6.0,76,0.00,,,0.00,626,Wunderground v.1.15,2013-04-28 03:21:00,
2013-04-27 22:27:00,54.7,47.6,23.59,South,184,6.0,9.0,77,0.00,,,0.00,612,Wunderground v.1.15,2013-04-28 03:27:00,
2013-04-27 22:33:00,54.5,47.8,23.60,SSE,167,6.0,6.0,78,0.00,,,0.00,613,Wunderground v.1.15,2013-04-28 03:33:00,
2013-04-27 22:39:00,54.5,47.8,23.61,South,182,6.0,6.0,78,0.00,,,0.00,608,Wunderground v.1.15,2013-04-28 03:39:00,
2013-04-27 22:45:00,54.4,47.7,23.62,SSE,168,6.0,7.0,78,0.00,,,0.00,613,Wunderground v.1.15,2013-04-28 03:45:00,
2013-04-27 22:51:00,54.3,47.6,25.00,South,180,7.0,7.0,78,0.00,,,0.00,608,Wunderground v.1.15,2013-04-28 03:51:00,
2013-04-27 22:57:00,53.9,47.2,23.64,South,182,6.0,7.0,78,0.00,,,0.00,608,Wunderground v.1.15,2013-04-28 03:57:00,
2013-04-27 23:01:00,53.6,47.2,23.64,South,170,6.0,12.0,79,0.00,,,0.00,608,Wunderground v.1.15,2013-04-28 04:01:00,
2013-04-27 23:03:00,53.5,47.1,23.64,South,175,6.0,12.0,79,0.00,,,0.00,603,Wunderground v.1.15,2013-04-28 04:03:00,
2013-04-27 23:05:00,53.4,47.0,23.64,South,177,5.0,12.0,79,0.00,,,0.00,599,Wunderground v.1.15,2013-04-28 04:05:00,
2013-04-27 23:09:00,53.4,47.4,23.65,South,190,6.0,7.0,80,0.00,,,0.00,594,Wunderground v.1.15,2013-04-28 04:09:00,
2013-04-27 23:15:00,53.7,47.3,23.66,South,169,7.0,10.0,79,0.00,,,0.00,606,Wunderground v.1.15,2013-04-28 04:15:00,
2013-04-27 23:21:00,53.6,47.2,23.67,South,169,7.0,7.0,79,0.00,,,0.00,603,Wunderground v.1.15,2013-04-28 04:21:00,
2013-04-27 23:27:00,53.0,47.0,23.68,South,174,6.0,8.0,80,0.00,,,0.00,594,Wunderground v.1.15,2013-04-28 04:27:00,
2013-04-27 23:33:00,52.6,46.6,23.69,South,171,5.0,6.0,80,0.00,,,0.00,587,Wunderground v.1.15,2013-04-28 04:33:00,
2013-04-27 23:35:00,52.6,46.6,23.69,South,176,5.0,6.0,80,0.00,,,0.00,580,Wunderground v.1.15,2013-04-28 04:35:00,
2013-04-27 23:41:00,52.4,46.7,23.70,South,180,5.0,7.0,81,0.00,,,0.00,582,Wunderground v.1.15,2013-04-28 04:41:00,
2013-04-27 23:47:00,52.6,46.9,23.71,South,180,6.0,7.0,81,0.00,,,0.00,578,Wunderground v.1.15,2013-04-28 04:47:00,
2013-04-27 23:53:00,52.7,47.0,23.72,South,171,6.0,6.0,81,0.00,,,0.00,578,Wunderground v.1.15,2013-04-28 04:53:00,
2013-04-27 23:59:00,52.6,46.9,23.73,South,182,5.0,5.0,81,0.00,,,0.00,580,Wunderground v.1.15,2013-04-28 04:59:00,